Regional Weather Roundup
Issued by NWS Green Bay, WI

Home | Current Version | Previous Version | Graphics & Text | Print | Product List | Glossary Off
Versions: 1 2 3 4 5 6 7 8 9 10 11 12 13 14 15 16 17 18 19 20 21 22 23 24 25 26 27 28 29 30 31 32 33 34 35 36 37 38 39 40 41 42 43 44 45 46 47 48 49 50

000
ASUS43 KGRB 170259
RWRGRB

NORTH-CENTRAL AND NORTHEAST WISCONSIN REGIONAL WEATHER ROUNDUP
NATIONAL WEATHER SERVICE GREEN BAY WI
1000 PM CDT TUE SEP 16 2014

WIZ005-009-010>012-018-019-170400-
NORTH CENTRAL WISCONSIN

CITY           SKY/WX    TMP DP  RH WIND       PRES   REMARKS
IRONWOOD       PTCLDY    55  45  67 SW8       29.97F
MANITOWISH WTR NOT AVBL
ARBOR VITAE    NOT AVBL
EAGLE RIVER    NOT AVBL
LAND O LAKES   NOT AVBL
RHINELANDER    CLEAR     47  42  83 SW3       30.04S
PHILLIPS       CLEAR     46  43  88 SW3       30.03S
ANTIGO         NOT AVBL
TOMAHAWK       NOT AVBL
MERRILL        NOT AVBL
$$

WIZ013-073-170400-
NORTHEAST WISCONSIN

CITY           SKY/WX    TMP DP  RH WIND       PRES   REMARKS
IRON MOUNTAIN  CLEAR     50  42  74 CALM      29.99F
MARINETTE      CLEAR     54  45  71 W5        30.01S
$$

WIZ017-030-035>037-045-170400-
CENTRAL WISCONSIN

CITY           SKY/WX    TMP DP  RH WIND       PRES   REMARKS
MEDFORD        NOT AVBL
WAUSAU         CLEAR     50  45  83 CALM      30.04S
MOSINEE        CLEAR     52  46  82 SW3       30.06F
MARSHFIELD     CLEAR     48  45  89 SW6       30.06S
WISC RAPIDS    CLEAR     43  41  93 CALM      30.08S
STEVENS POINT  NOT AVBL
WAUPACA        NOT AVBL
SHAWANO        CLEAR     54  46  74 CALM      30.05S
CLINTONVILLE   CLEAR     50  43  76 CALM      30.05S
$$

WIZ038-039-048-051-170400-
FOX VALLEY

CITY           SKY/WX    TMP DP  RH WIND       PRES   REMARKS
NWS GREEN BAY  CLEAR     52  46  80 S3        30.05S
APPLETON       CLEAR     54  43  66 SW7       30.06F
OSHKOSH        CLEAR     51  43  74 S5        30.06F
FOND DU LAC    CLEAR     48  43  82 SW6       30.07F
$$

WIZ022-050-052-170400-
EAST CENTRAL WISCONSIN

CITY           SKY/WX    TMP DP  RH WIND       PRES   REMARKS
STURGEON BAY   CLEAR     52  45  76 SW7       30.04S
MANITOWOC      NOT AVBL
SHEBOYGAN      CLEAR     47  44  90 S3        30.07F
$$

LMZ563-521-522-541>543-170400-
LAKESHORE

STATION/POSITION TIME  TEMP    WIND        PRES    VSBY  WAVE
                       AIR SEA DIR/SP/G                  HT/PER
                 (UTC) (F)     (DEG/KT/KT) (MB)    (MI)  (FT/S)
SHEBOYGAN LKSHOR 0200   55 49  220/  6/  6 1018.8F
KEWAUNEE LKSHORE 0200   56     230/  6/  8 1016.5F
NORTHPORT PIER   0200   58     210/  2/  8 1015.9F
N MID LAKE BUOY  0200   59 59  220/ 16/ 19 1015.9R         3/ 5
S GREEN BAY BUOY 0200   60     VRB 12/ 16  1018.0R
CHAMBERS ISLAND  0200   58     200/  4/ 10 1016.6S
MENOMINEE LKSHOR 0200   58     240/  9/ 11 1017.0F
$$


USA.gov is the U.S. government's official web portal to all federal, state and local government web resources and services.